Weather in Kurganovo

Russia / Sverdlovsk Oblast     56°37′59″N   60°23′13″E
temp.,
°C
wind,
m/s
gust,
m/s
humid.,
%
clouds,
%
prec.,
mm/h
press.,
hPa
HPBL,
m
26 july, mon
mon2623:00+10nw396214 0.0 1018192
02:00+8w227522 0.0 101918
05:00+11wnw2861100 0.0 1019298
08:00+13wnw3859100 0.0 1019374
11:00+15wnw364999 0.0 1019853
14:00+16wnw4646100 0.0 10181901
17:00+18wnw4640100 0.0 10172173
20:00+15w37585 0.0 1017455
27 july, tue
tue2723:00+10wsw398145 0.0 1017203
02:00+10wsw398530 0.0 1016206
05:00+11wsw412735 0.0 1015386
08:00+15wsw51261100 0.0 1013690
11:00+15w6127465 0.1 10131129
14:00+18w586138 0.1 10111300
17:00+18wnw587067 1.1 10101227
20:00+14wnw49922 2.0 1010477
28 july, wed
wed2823:00+10nw38966 2.3 1011214
02:00+7wnw39955 0.0 1012189
05:00+7wnw410925 0.0 1012357
08:00+9wnw410797 0.0 1012556
11:00+14wnw6115573 0.1 10111750
14:00+15nw6951100 0.5 10111940
17:00+14nw59545 0.6 10121610
20:00+12nw475527 0.0 10131028
29 july, thu
thu2923:00+7wsw227773 0.0 101339
02:00+8sw2378100 0.0 101266
05:00+10sw387978 0.1 1010191
08:00+13wsw4137098 0.1 1009668
11:00+16wsw6125890 0.1 1008765
14:00+21w7105071 0.3 10072364
17:00+20w59605 1.4 10071238
20:00+17w31177100 0.6 1006464
30 july, fri
fri3023:00+14sw41293100 0.9 1005412
02:00+14wsw41195100 0.1 1004456
05:00+14wsw389866 0.1 1004310
08:00+15wnw349099 0.0 1004402
11:00+18w2275100 0.0 1004611
14:00+22wsw235694 0.1 10041492
17:00+23sw2352100 0.1 10031608
20:00+18wsw3783100 0.3 1004315